Regional Weather Roundup
Issued by NWS Upton, NY

Current Version | Previous Version | Graphics & Text | Print | Product List | Glossary Off
Versions: 1 2 3 4 5 6 7 8 9 10 11 12 13 14 15 16 17 18 19 20 21 22 23 24 25 26 27

000
ASUS41 KOKX 221205
RWROKX

REGIONAL WEATHER ROUNDUP
NATIONAL WEATHER SERVICE NEW YORK NY
800 AM EDT TUE APR 22 2014

NOTE: "FAIR" INDICATES FEW OR NO CLOUDS BELOW 12,000 FEET WITH NO
SIGNIFICANT WEATHER AND/OR OBSTRUCTIONS TO VISIBILITY.

NYZ071-072-176-178-NJZ106-104-221300-
NEW YORK CITY METRO AREA


CITY           SKY/WX    TMP DP  RH WIND       PRES   REMARKS
CENTRAL PARK   MOSUNNY   54  45  71 VRB5      29.77F
LAGUARDIA APRT PTSUNNY   53  44  71 SW9       29.75F
KENNEDY INTL   PTSUNNY   50  45  83 SW5       29.77F
NEWARK/LIBERTY PTSUNNY   52  47  83 SW8G22    29.75F
TETERBORO      MOSUNNY   53  45  74 S8        29.74F
$$

NYZ177-179-078>081-221300-
LONG ISLAND NEW YORK

CITY           SKY/WX    TMP DP  RH WIND       PRES   REMARKS
FARMINGDALE    MOSUNNY   49  46  90 SW5       29.76F
ISLIP          PTSUNNY   51  45  79 SW8       29.75F
SHIRLEY        MOSUNNY   53  46  77 SW7       29.77F
WESTHAMPTON    MOSUNNY   52  45  77 SW6       29.77F
MONTAUK POINT    N/A     54  45  71 SW6       29.77F
$$

NYZ052-065-067-221300-
HUDSON VALLEY

CITY           SKY/WX    TMP DP  RH WIND       PRES   REMARKS
WHITE PLAINS   PTSUNNY   51  45  79 CALM      29.73F
NEWBURGH       MOSUNNY   52  41  66 CALM      29.72F
MONTGOMERY     PTSUNNY   51  40  65 SW6       29.71F
POUGHKEEPSIE   CLOUDY    51  42  71 SE5       29.70F
ALBANY         CLOUDY    54  36  50 S13       29.67F
$$

NJZ001-105-106-008-010-013-015-019>022-104-221300-
NEW JERSEY

CITY           SKY/WX    TMP DP  RH WIND       PRES   REMARKS
NEWARK/LIBERTY PTSUNNY   52  47  83 SW8G22    29.75F
TETERBORO      MOSUNNY   53  45  74 S8        29.74F
CALDWELL       PTSUNNY   50  45  83 SW3       29.74F
MORRISTOWN     PTSUNNY   48  45  87 S5        29.75F
SOMERVILLE     PTSUNNY   47  43  86 CALM      29.74F
LINDEN         FAIR      53  47  81 CALM      29.77F
SUSSEX         PTSUNNY   49  37  63 CALM      29.71F
ANDOVER          N/A     50  42  74 SW6       29.72F
TRENTON        PTSUNNY   50  46  86 S6        29.75F
MILLVILLE      MOSUNNY   50  48  93 CALM      29.77F
ATLANTIC CITY  MOSUNNY   49  46  90 CALM      29.78S
WRIGHTSTOWN    PTSUNNY   49  47  90 SW6       29.75F
TOMS RIVER     SUNNY     50  46  87 CALM      29.77F
BELMAR         SUNNY     48  41  76 W7        29.76F
$$

PAZ047>061-062-071-221300-
EASTERN PENNSYLVANIA

CITY           SKY/WX    TMP DP  RH WIND       PRES   REMARKS
PHILADELPHIA   PTSUNNY   51  44  77 S7        29.77F
ALLENTOWN      CLOUDY    50  41  71 CALM      29.74F
SCRANTON       CLOUDY    55  33  43 CALM      29.69F
$$

CTZ002-004>006-009-010-012-RIZ004-006-007-MAZ004-011-015-221300-
SOUTHERN NEW ENGLAND
 IN CT

CITY           SKY/WX    TMP DP  RH WIND       PRES   REMARKS
BRADLEY INTL   PTSUNNY   49  42  77 S6        29.72F
HARTFORD       PTSUNNY   50  43  77 S7        29.73F
DANBURY        PTSUNNY   51  43  74 CALM      29.74F
WTRBRY/OXFORD  PTSUNNY   46  41  81 SW7       29.76F
BRIDGEPORT     MOSUNNY   50  46  86 SW7       29.75F
MERIDEN        PTSUNNY   47  42  83 S6        29.75F
NEW HAVEN      PTSUNNY   49  45  86 S5        29.76F
CHESTER        FAIR      48  45  87 SW6       29.75F
GROTON         SUNNY     47  46  97 CALM      29.75F
WILLIMANTIC    MOSUNNY   46  42  86 CALM      29.75F

 IN RI

CITY           SKY/WX    TMP DP  RH WIND       PRES   REMARKS
PROVIDENCE     MOSUNNY   49  43  80 S3        29.75F
BLOCK ISLAND   SUNNY     52  41  66 SW15      29.76F
WESTERLY       SUNNY     48  44  86 SW5       29.77F

 IN MA

CITY           SKY/WX    TMP DP  RH WIND       PRES   REMARKS
BOSTON         PTSUNNY   51  42  71 SW10      29.72F
WORCESTER      MOSUNNY   52  39  61 SW12      29.71F
WESTFIELD      PTSUNNY   47  41  80 S3        29.72F
PROVINCETOWN   PTSUNNY   48  43  81 MISG      29.76S
NANTUCKET      SUNNY     50  46  86 SW5       29.78F
$$

ANZ330-335-338-340-345-350-353-355-221300-
COASTAL MARINE OBSERVATIONS


STATION/POSITION TIME  SKY/WX   TEMP    WIND        PRES    VSBY  WAVE
                                AIR SEA DIR/SP/G                  HT/PER
                 (UTC)          (F)     (DEG/KT/KT) (MB)    (MI)  (FT/S)
NY HARB ENTRANCE 1200            47 45  VRB  8/  8  1008.0
4S FIRE IS       1100               46                N/A           4/ 8
23SW MTP         1200            45 44  250/  6/  6 1008.0          4/ 9
HUDSON CANYON    1100            46 45  230/  4/  4 1009.0          5/ 8
EXECUTION ROCKS  1200            56 46  200/  6/  8   N/A
WESTERN LI SOUND 1200            47     330/  2/  4   N/A           0
CENTRAL LI SOUND 1100            45 42  190/  6/  8   N/A           0
EASTERN LI SOUND NOT AVBL
ROBBINS REEF     1200            51     230/  7/  8   N/A
$$


>>>>>>>>>>>>>>>>>>>>>>>>>>>> KEY <<<<<<<<<<<<<<<<<<<<<<<<<<<
>                                                          <
>     SKY/WX - SKY CONDITION/PRESENT WEATHER               <
>     TMP    - TEMPERATURE IN FAHRENHEIT                   <
>     DP     - DEWPOINT IN FAHRENHEIT                      <
>     RH     - RELATIVE HUMIDITY IN PERCENT                <
>     WIND   - DIRECTION AND SPEED IN MPH                  <
>     PRES   - MEAN SEA LEVEL PRESSURE IN INCHES OF HG     <
>     WCI    - WIND CHILL INDEX                            <
>     VSB    - VISIBILITY IN MILES                         <
>     HX     - HEAT INDEX                                  <
>     TC     - TEMPERATURE IN CELSIUS                      <
>     VRB    - VARIABLE WIND DIRECTION                     <
>                                                          <
>>>>>>>>>>>>>>>>>>>>>>>>>>>> KEY <<<<<<<<<<<<<<<<<<<<<<<<<<<





USA.gov is the U.S. government's official web portal to all federal, state and local government web resources and services.